Regional Weather Roundup
Issued by NWS Sterling, VA

Home | Current Version | Previous Version | Graphics & Text | Print | Product List | Glossary On
Versions: 1 2 3 4 5 6 7 8 9 10 11 12 13 14 15 16 17 18 19 20 21 22 23 24 25 26 27 28 29 30 31 32 33 34 35 36 37 38 39 40 41 42 43 44 45 46 47 48 49 50
000
ASUS41 KLWX 171410
RWRLWX

REGIONAL WEATHER ROUNDUP
NATIONAL WEATHER SERVICE BALTIMORE MD/WASHINGTON DC
900 AM EST TUE JAN 17 2017

Note: "FAIR" indicates few or no clouds below 12,000 feet
with no significant weather and/or obstructions to visibility.
 TC=TEMPERATURE CELSIUS

 * =Non NWS site. Station does not report precipitation (e.g. rain,
    snow, etc.), thunder, or fog.

DCZ001-MDZ009-015-VAZ040>042-051-053>054-171500-
WASHINGTON METRO

CITY           SKY/WX    TMP DP  RH WIND       PRES   REMARKS
WASHINGTON NAT CLOUDY    43  41  93 S5        30.21R
DULLES         LGT RAIN  41  38  89 S6        30.20R
ANDREWS AFB    PTSUNNY   40  38  93 S5        30.19R
FT BELVOIR     LGT RAIN  41  39  93 CALM      30.21R
QUANTICO       LGT RAIN  42  41  96 CALM      30.22R
LEESBURG*      LGT RAIN  43  43 100 MISG      30.20R
MANASSAS*      CLOUDY   N/A N/A N/A CALM        N/A
GAITHERSBURG*  CLOUDY    39  36  87 SE5       30.22S

$$

MDZ006>007-011-014-171500-
BALTIMORE METRO

CITY           SKY/WX    TMP DP  RH WIND       PRES   REMARKS
BWI AIRPORT    LGT RAIN  40  39  97 SE3       30.20R FOG
MD SCIENCE CTR   N/A     41  36  82 MISG      30.21S
MARTIN STATE   CLOUDY    39  39 100 CALM      30.22S FOG
ANNAPOLIS      CLOUDY    41  38  89 SE6       30.21S FOG
FORT MEADE*    CLOUDY    37  37 100 CALM      30.23R

$$

MDZ012-015-019>023-171500-
MARYLAND EASTERN SHORE

CITY           SKY/WX    TMP DP  RH WIND       PRES   REMARKS
OCEAN CITY     CLOUDY    43  40  89 CALM      30.24F
SALISBURY      CLOUDY    42  41  96 CALM      30.24R FOG
BAY BRIDGE AP* CLOUDY    41  39  93 S7        30.21S FOG
CAMBRIDGE*     CLOUDY    41  37  87 S6        30.22S

$$

MDZ017>025-171500-
SOUTHERN MARYLAND

CITY           SKY/WX    TMP DP  RH WIND       PRES   REMARKS
PATUXENT RIVER CLOUDY    44  41  89 S5        30.21S
ST INIGOES     CLOUDY    43  40  89 SE9       30.20S
LEONARDTOWN*   CLOUDY    43  39  87 S5        30.22R

$$

MDZ003>005-171500-
NORTH CENTRAL MARYLAND

CITY           SKY/WX    TMP DP  RH WIND       PRES   REMARKS
FREDERICK*     FOG       36  36 100 CALM      30.21S VSB 1/8
HAGERSTOWN APT LGT RAIN  34  32  92 NW5       30.16R VSB<1/4
WESTMINSTER*   LGT RAIN  36  36 100 SE7       30.16F VSB 1/4

$$

MDZ501>502-171500-
WESTERN MARYLAND

CITY           SKY/WX    TMP DP  RH WIND       PRES   REMARKS
OAKLAND*         N/A     46  46 100 S10       30.05F FOG
CUMBERLAND*    CLOUDY    36  36 100 CALM      30.17F

$$

VAZ025>031-171500-
SHENANDOAH VALLEY

CITY           SKY/WX    TMP DP  RH WIND       PRES   REMARKS
WINCHESTER*    LGT RAIN  36  36 100 CALM      30.16S VSB 1
FRONT ROYAL*   CLOUDY    39  39 100 CALM      30.15S VSB 1
LURAY*         RAIN      45  45 100 CALM      30.15F
NEW MARKET*    CLOUDY    42  41  96 CALM      30.15S
STAUNTON*      LGT RAIN  44  43  97 CALM      30.16F
WAYNESBORO*    CLOUDY    44  43  97 CALM      30.16S

$$

WVZ021-048>050-054>055-171500-
EASTERN WEST VIRGINIA PANHANDLE

CITY           SKY/WX    TMP DP  RH WIND       PRES   REMARKS
MARTINSBURG    LGT RAIN  36  35  96 CALM      30.16S VSB 1/4
PETERSBURG*    CLOUDY    40  38  93 CALM      30.13F FOG

$$

VAZ036>039-050-171500-
CENTRAL FOOTHILLS

CITY           SKY/WX    TMP DP  RH WIND       PRES   REMARKS
CHARLOTTESVILL LGT RAIN  42  40  92 S7        30.17R FOG
CULPEPER*      LGT RAIN  42  41  98 CALM      30.20S
ORANGE*        LGT RAIN  41  41 100 CALM      30.20S
GORDONSVILLE*  CLOUDY    41  40  98 SW7       30.19R FOG
WARRENTON*     LGT RAIN  42  39  89 CALM      30.18S

$$

VAZ055>057-171500-
NORTH AND CENTRAL PIEDMONT

CITY           SKY/WX    TMP DP  RH WIND       PRES   REMARKS
FREDERICKSBRG* LGT RAIN  44  44 100 CALM      30.20R
STAFFORD*      LGT RAIN  41  41 100 CALM      30.25R

$$

NCZ024-NYZ072-PAZ021-071-VAZ022-071-171500-
OTHER REGIONAL OBSERVATIONS

CITY           SKY/WX    TMP DP  RH WIND       PRES   REMARKS
NEW YORK CITY  CLOUDY    42  28  57 CALM      30.25R
PHILADELPHIA   CLOUDY    40  33  76 S6        30.23R
PITTSBURGH     LGT RAIN  47  47 100 SE5       29.95F
ROANOKE        RAIN      43  42  97 SE3       30.20F FOG
RICHMOND       CLOUDY    45  43  93 S9        30.21S
RALEIGH        FOG       50  49  96 SW8       30.26R VSB 1/8

$$

ANZ530>537-171500-
MARINE OBSERVATIONS

STATION/POSITION TIME  TEMP    WIND        PRES
                       AIR SEA DIR/SP/G
                 (UTC) (F)     (DEG/KT/KT) (MB)
THOMAS PT LIGHT  1300   40 38  160/  6/  7   N/A
BALT KEY BRIDGE  1348   38     100/  5/  5 1022.9F
COVE POINT       1348   40     190/ 11/ 12 1023.6R
LEWISETTA        1348   44 42  190/  7/  8 1022.7S
SOLOMONS ISLAND  1348      40  180/  6/  8   N/A
PINEY POINT      1348          150/  7/  7   N/A

$$




USA.gov is the U.S. government's official web portal to all federal, state and local government web resources and services.